This is the latest recevied weather packets stored in our database for station/object KF4WSW-13. If no packets are shown the sender has not sent any weather packets the latest 10 day(s).
| Time | Temp. | Humidity | Pressure | Rain* | Wind** | Luminosity | Snow |
|---|---|---|---|---|---|---|---|
| 1777508127 | 24.44° C | 88% | 1010.9 hPa | 0 mm | - | 0 W/m² | - |
| 1777507823 | 24.44° C | 88% | 1010.9 hPa | 0 mm | - | 1 W/m² | - |
| 1777507520 | 24.44° C | 88% | 1010.6 hPa | 0 mm | - | 2 W/m² | - |
| 1777507217 | 24.44° C | 87% | 1010.5 hPa | 0 mm | - | 4 W/m² | - |
| 1777506915 | 24.44° C | 87% | 1010.7 hPa | 0 mm | - | 7 W/m² | - |
| 1777506612 | 24.44° C | 87% | 1010.6 hPa | 0 mm | - | 11 W/m² | - |
| 1777506308 | 25° C | 86% | 1010.6 hPa | 0 mm | - | 14 W/m² | - |
| 1777506004 | 25° C | 86% | 1010.8 hPa | 0 mm | - | 18 W/m² | - |
| 1777505700 | 25° C | 86% | 1011 hPa | 0 mm | - | 21 W/m² | - |
| 1777505397 | 25° C | 85% | 1010.6 hPa | 0 mm | - | 24 W/m² | - |
| 1777505093 | 25° C | 85% | 1010.7 hPa | 0 mm | - | 28 W/m² | - |
| 1777504790 | 25° C | 85% | 1010.8 hPa | 0 mm | - | 30 W/m² | - |
| 1777504488 | 25° C | 84% | 1010.9 hPa | 0 mm | - | 33 W/m² | - |
| 1777504183 | 25° C | 84% | 1010.8 hPa | 0 mm | - | 35 W/m² | - |
| 1777503879 | 25° C | 84% | 1010.6 hPa | 0 mm | - | 37 W/m² | - |
| 1777503575 | 25.56° C | 84% | 1010.9 hPa | 0 mm | - | 41 W/m² | - |
| 1777503273 | 25.56° C | 84% | 1010.8 hPa | 0 mm | - | 42 W/m² | - |
| 1777502968 | 25.56° C | 84% | 1011 hPa | 0 mm | - | 47 W/m² | - |
| 1777502666 | 25.56° C | 83% | 1011.1 hPa | 0 mm | - | 57 W/m² | - |
| 1777502363 | 25.56° C | 83% | 1010.9 hPa | 0 mm | - | 51 W/m² | - |
| 1777502059 | 26.11° C | 83% | 1010.9 hPa | 0 mm | - | 58 W/m² | - |
| 1777501756 | 26.11° C | 82% | 1010.7 hPa | 0 mm | - | 82 W/m² | - |
| 1777501454 | 26.11° C | 82% | 1010.7 hPa | 0 mm | - | 63 W/m² | - |
| 1777501150 | 26.11° C | 81% | 1010.8 hPa | 0 mm | - | 62 W/m² | - |
| 1777500850 | 26.11° C | 81% | 1011 hPa | 0 mm | - | 78 W/m² | - |
* Rain latest hour (hover to see other rain measurements)
** Current wind speed in m/s (hover to see current wind gust speed)